ONEWEB-0123 (47269 NORAD) Tracking and Keplerian Element Data
This shows tracking and keplerian element data for the satellite.
Feedback or suggestion? Click here.
Element | Value |
Catalog | 47269 |
Name | ONEWEB-0123 |
Epoch Orbit | 436 |
Epoch Day | 15.88497845 |
Epoch Year | 2021 |
RAAN | 29.6401 |
Inclination | 87.4286 |
Eccentricity | 0.0007159 |
Argument of Perigee | 151.027 |
Mean Anonmoly | 209.1375 |
Mean Motion | 15.2188374 |
Decay Rate | -0.00422153 |
L1 | 1 47269U 20100M 21015.88497845 -.00422153 00000-0 -19657-1 0 9991 |
L2 | 2 47269 87.4286 29.6401 0007159 151.0270 209.1375 15.21883740 4364 |
Live tracking and technical data element details for ONEWEB-0123 (NORAD 47269). ONEWEB-0123 can be tracked NOW for your location showing map with azimuth and elevation plus other details from your city location.
Track the satellite on the map from your city or location and see movement details for azimuth, elevation, latitude, longitude, range, height, and movement on the map or in text.
IsCatalogInMostPopularTable: catalog: 47269, numindb: 9
Update: records affected: 1
GetName: 47269 ONEWEB-0123
Hit Count: updated at: Sun, 17 Jan 2021 09:00:00 GMT